{"data":{"norad_id":68392,"epoch":"2026-09-20T03:30:24.214176Z","epoch_age_seconds":78209,"freshness":"FRESH","line1":"1 68392U 26063N   26263.14611359  .00014340  00000+0  44532-3 0  9996","line2":"2 68392  97.2850  44.0018 0001896 274.4422  85.6604 15.33468757 27699","mean_motion":15.33468757,"eccentricity":0.0001896,"inclination_deg":97.285,"raan_deg":44.0018,"arg_perigee_deg":274.4422,"mean_anomaly_deg":85.6604,"bstar":0.00044532,"rev_number":2769,"period_min":93.90474983117,"perigee_km":464.17494291361,"apogee_km":466.7700396327,"semimajor_km":6843.6094912732,"source":"CELESTRAK","updated_at":"2026-09-20T09:00:43.895811Z"}}